Regional Weather Roundup
Issued by NWS

Home | Current Version | Previous Version | Graphics & Text | Print | Product List | Glossary On
Versions: 1 2 3 4 5 6 7 8 9 10 11 12 13 14 15 16 17 18 19 20 21 22 23 24 25 26 27 28 29 30 31 32 33 34 35 36 37 38 39 40 41 42 43 44 45 46 47 48 49 50
000
ASUS45 KCYS 191410
RWRWY

WYOMING REGIONAL WEATHER ROUNDUP
NATIONAL WEATHER SERVICE CHEYENNE WY
800 AM MDT SUN OCT 19 2014

NOTE:  "FAIR" INDICATES FEW OR NO CLOUDS BELOW 12,000 FEET
WITH NO SIGNIFICANT WEATHER AND/OR OBSTRUCTIONS TO VISIBILITY.

WYZ001-191500-
YELLOWSTONE NATIONAL PARK

CITY           SKY/WX    TMP DP  RH WIND       PRES   REMARKS
LK YELLOWSTONE   N/A     25  23  92 CALM      30.27R
W YELLOWSTONE  NOT AVBL

$$
WYZ002>013-054>058-071-098>099-191500-
NORTHERN WYOMING

CITY           SKY/WX    TMP DP  RH WIND       PRES   REMARKS
JACKSON        CLEAR     27  25  93 NW3       30.24R
CODY           CLEAR    N/A N/A N/A N3        30.11R
GREYBULL       CLEAR     34  27  75 CALM      30.10R
WORLAND        CLEAR     37  30  75 S6        30.10R WCI  32
SHERIDAN       CLEAR     37  30  75 CALM      30.09R
BUFFALO        CLEAR     47  30  51 W7        30.13R
GILLETTE       CLEAR     37  32  82 CALM      30.10R
HULETT         FAIR      43  34  70 S3        30.10
NEWCASTLE      FAIR      45  32  61 CALM      30.08

$$
WYZ014>020-022>026-101>103-191500-
CENTRAL WYOMING

CITY           SKY/WX    TMP DP  RH WIND       PRES   REMARKS
BIG PINEY      CLEAR     27  23  85 CALM      30.23R
PINEDALE       SUNNY     27  27 100 NW5       30.24R WCI  21
DUBOIS         FAIR      32  25  74 NW13      30.22R WCI  22
LANDER         CLEAR     43  30  60 E3        30.14R
RIVERTON       PTCLDY    39  32  76 NW7       30.16R WCI  34
CASPER         CLEAR     37  29  72 W3        30.15R
DOUGLAS        PTCLDY    38  32  79 NW6       30.15R WCI  33

$$
WYZ021-027>030-104>119-191500-
SOUTHERN WYOMING

CITY           SKY/WX    TMP DP  RH WIND       PRES   REMARKS
EVANSTON       PTCLDY    39  26  59 SE7       30.21R WCI  34
KEMMERER       SUNNY     32  28  86 N12       30.23S WCI  23
FORT BRIDGER   FAIR      42  29  60 W7        30.24R
ROCK SPRINGS   PTCLDY    41  27  57 CALM      30.21R
DIXON          FAIR      31  26  81 CALM      30.24S
RAWLINS        PTCLDY    31  24  75 NW3       30.21R
SARATOGA       FAIR      36  28  75 S8        30.22S WCI  29
LARAMIE        CLEAR     36  28  73 S9        30.21R WCI  29
CHEYENNE       CLEAR     49  27  42 NW10      30.14R
TORRINGTON     CLEAR     37  34  89 NW6       30.08R WCI  32
PINE BLUFFS    FAIR      37  32  81 SW3       30.11R

$$



USA.gov is the U.S. government's official web portal to all federal, state and local government web resources and services.